FW0209 Weather Reports


time (UTC)temp
C
wind
direction
speed
KPH
gust
KPH
rain 1hr
cm
rain 24hr
cm
rain mn
cm
humidity
%
barometer
mb
20260507044530 10 146 3.2 6.4 0.00 0.41 0.05 88 1016.6
20260507043029 10 147 0.0 0.0 0.10 0.41 0.05 88 1016.5
20260507041532 10 148 4.8 9.7 0.10 0.41 0.05 87 1016.4
20260507040049 10 147 3.2 9.7 0.10 0.41 0.05 87 1016.3
20260507034527 10 147 8.0 14.5 0.10 0.61 0.05 86 1016.2
20260507033028 11 146 4.8 14.5 0.00 0.51 0.03 86 1016.2
20260507031526 11 146 6.4 11.3 0.00 0.51 0.03 85 1016.2
20260507030045 11 148 6.4 16.1 0.00 0.51 0.03 83 1016.0
20260507024547 11 148 8.0 11.3 0.00 0.71 0.03 81 1015.9
20260507023046 11 148 3.2 11.3 0.00 0.71 0.03 80 1016.0
20260507021524 11 154 6.4 11.3 0.00 0.71 0.03 80 1015.9
20260507020027 12 153 4.8 12.9 0.00 0.71 0.03 80 1016.1
20260507014526 12 152 3.2 8.0 0.00 0.71 0.03 80 1015.9
20260507013027 12 151 1.6 9.7 0.00 0.71 0.03 79 1015.9
20260507011525 12 152 1.6 4.8 0.00 0.71 0.03 78 1015.8
20260507010022 12 152 1.6 4.8 0.00 0.71 0.03 78 1015.9
20260507004524 12 151 3.2 8.0 0.00 0.71 0.03 78 1015.9
20260507003016 12 152 0.0 3.2 0.00 0.71 0.03 78 1015.8
20260507001517 12 152 0.0 9.7 0.00 0.71 0.03 77 1015.8
20260507000049 12 152 1.6 11.3 0.10 0.71 0.03 77 1016.0
20260506234526 12 153 0.0 9.7 0.10 0.71 0.03 77 1016.1
20260506233043 12 153 1.6 8.0 0.10 0.71 0.03 77 1016.2
20260506231545 12 150 1.6 4.8 0.10 0.71 0.03 76 1016.2
20260506230043 13 152 0.0 8.0 0.00 0.61 0.00 75 1016.4
20260506224520 13 155 0.0 4.8 0.00 0.61 0.15 73 1016.5
20260506223040 13 164 3.2 9.7 0.00 0.61 0.15 72 1016.6
20260506221515 13 164 0.0 3.2 0.00 0.61 0.15 71 1016.6
20260506220034 13 165 0.0 8.0 0.00 0.61 0.15 71 1016.7
20260506214513 13 166 0.0 16.1 0.00 0.61 0.15 71 1016.5
20260506213029 13 167 3.2 12.9 0.00 0.61 0.15 70 1016.7
20260506211531 13 167 6.4 12.9 0.00 0.61 0.15 69 1016.7
20260506210025 13 168 3.2 12.9 0.00 0.61 0.15 69 1016.9
20260506204525 13 169 1.6 19.3 0.00 0.61 0.15 70 1016.8
20260506203042 14 172 4.8 12.9 0.00 0.61 0.15 69 1016.8
20260506201513 14 171 3.2 16.1 0.00 0.61 0.15 69 1016.9
20260506200031 14 172 0.0 1.6 0.00 0.61 0.15 69 1016.9
20260506194512 14 172 0.0 11.3 0.00 0.61 0.15 69 1016.8
20260506193109 14 173 3.2 9.7 0.00 0.61 0.15 69 1016.6
20260506191544 15 174 0.0 12.9 0.00 0.61 0.15 69 1016.5
20260506190021 15 174 0.0 1.6 0.00 0.61 0.15 68 1016.4
20260506184513 15 174 0.0 0.0 0.00 0.61 0.15 69 1016.0
20260506183032 15 173 0.0 4.8 0.00 0.61 0.15 68 1015.9
20260506181531 15 173 6.4 12.9 0.00 0.61 0.15 68 1015.9
20260506180026 15 175 3.2 11.3 0.00 0.61 0.15 69 1015.7
20260506174523 16 175 9.7 14.5 0.00 0.61 0.15 69 1015.6
20260506173025 16 174 4.8 22.5 0.00 0.61 0.15 68 1015.5
20260506171542 16 178 0.0 8.0 0.00 0.61 0.15 66 1015.3
20260506170019 16 172 0.0 3.2 0.00 0.61 0.15 65 1015.4
20260506164537 16 168 9.7 19.3 0.00 0.61 0.15 64 1015.3
20260506163013 17 175 3.2 9.7 0.00 0.61 0.15 63 1015.3
20260506161512 17 179 0.0 0.0 0.00 0.61 0.15 62 1015.4
20260506160049 17 210 0.0 1.6 0.00 0.61 0.15 62 1015.5
20260506154524 17 217 0.0 9.7 0.00 0.61 0.15 62 1015.6
20260506153027 17 219 8.0 22.5 0.00 0.61 0.15 60 1015.7
20260506151542 18 195 6.4 17.7 0.00 0.61 0.15 59 1015.5
20260506150015 18 198 6.4 19.3 0.00 0.61 0.15 57 1015.4
20260506144517 18 167 0.0 17.7 0.00 0.61 0.15 56 1015.4
20260506143015 19 193 6.4 16.1 0.00 0.61 0.15 55 1015.4
20260506141513 19 198 3.2 9.7 0.00 0.61 0.15 56 1015.3
20260506140027 20 199 0.0 19.3 0.00 0.61 0.15 56 1015.4
20260506134526 20 165 0.0 3.2 0.00 0.61 0.15 57 1015.2
20260506133025 20 165 1.6 11.3 0.00 0.61 0.15 57 1015.4
20260506131523 20 168 3.2 20.9 0.00 0.61 0.15 56 1015.6
20260506130016 20 180 0.0 4.8 0.00 0.61 0.15 56 1015.6
20260506124514 20 177 0.0 14.5 0.00 0.61 0.15 56 1015.7
20260506123033 20 180 0.0 9.7 0.00 0.61 0.15 58 1015.6
20260506121528 20 180 4.8 19.3 0.00 0.61 0.15 59 1015.9
20260506120047 19 188 4.8 19.3 0.00 0.61 0.15 61 1016.0
20260506114603 18 211 0.0 0.0 0.00 0.61 0.15 62 1016.0
20260506113016 18 223 0.0 0.0 0.00 0.61 0.15 66 1016.3
20260506111533 18 225 0.0 0.0 0.00 0.61 0.15 66 1016.5
20260506110024 17 223 0.0 0.0 0.00 0.61 0.15 68 1016.5
20260506104542 17 219 0.0 0.0 0.00 0.61 0.15 70 1016.6
20260506103023 16 231 0.0 0.0 0.00 0.61 0.15 74 1016.7
20260506101542 15 230 0.0 0.0 0.00 0.61 0.15 77 1016.9
20260506100035 15 229 0.0 0.0 0.00 0.61 0.15 82 1016.9
20260506094515 14 230 0.0 0.0 0.00 0.61 0.15 84 1017.0
20260506093031 13 229 0.0 0.0 0.00 0.61 0.15 86 1017.0
20260506091528 13 211 0.0 0.0 0.00 0.61 0.15 87 1017.1
20260506090021 13 198 0.0 0.0 0.00 0.61 0.15 87 1017.1
20260506084550 12 185 0.0 0.0 0.00 0.61 0.15 87 1017.0
20260506083027 12 186 0.0 0.0 0.00 0.61 0.15 88 1017.1
20260506081528 12 184 0.0 0.0 0.00 0.61 0.15 88 1016.9
20260506073026 12 185 0.0 0.0 0.20 1.19 0.15 88 1017.0
20260506071525 12 184 0.0 0.0 0.20 1.19 0.15 88 1017.0
20260506061535 12 181 0.0 0.0 0.00 1.40 0.10 88 1016.9